Weather reports worldwide

Advertisment
Grünow, Germany (10289): temperature & dewpoint: 09.09.2019 10:00:00 - 15.09.2019 10:00:00 (CEST)Grünow, Germany (10289): temperature 5cm & temperature -5cm: 09.09.2019 10:00:00 - 15.09.2019 10:00:00 (CEST)Grünow, Germany (10289): temperature -20cm & temperature -100cm: 09.09.2019 10:00:00 - 15.09.2019 10:00:00 (CEST)Grünow, Germany (10289): wind speed & gusts: 09.09.2019 10:00:00 - 15.09.2019 10:00:00 (CEST)Grünow, Germany (10289): wind direction: 09.09.2019 10:00:00 - 15.09.2019 10:00:00 (CEST)Grünow, Germany (10289): reduced air pressure: 09.09.2019 10:00:00 - 15.09.2019 10:00:00 (CEST)Grünow, Germany (10289): visibility: 09.09.2019 10:00:00 - 15.09.2019 10:00:00 (CEST)Grünow, Germany (10289): sunshine duration: 09.09.2019 10:00:00 - 15.09.2019 10:00:00 (CEST)Grünow, Germany (10289): precipitation: 09.09.2019 10:00:00 - 15.09.2019 10:00:00 (CEST)
Date & Time tt [°C] td [°C] tt 5cm [°C] tt -5cm [°C] tt -20cm [°C] tt -100cm [°C] ff [km/h] ff [kn] fx [km/h] fx [kn] dd ppp [hPa] vv [km] sd [min] rr [mm]
15.09.2019 10:00:00 15,4 7,5 16,6 15,2 14,1 16,9 22 12 34 19 SW 1019,2 55 50 0,0
15.09.2019 09:00:00 13,5 6,7 14,1 13,1 14,0 16,9 23 13 38 20 SW 1020,0 65 60 0,0
15.09.2019 08:00:00 11,4 6,0 10,9 10,7 14,1 16,9 16 9 28 15 SW 1021,1 41 15 0,0
15.09.2019 07:00:00 10,2 5,5 8,8 9,8 14,3 16,9 14 8 23 12 SSW 1021,8 46 0 0,0
15.09.2019 06:00:00 9,3 5,3 8,1 9,9 14,5 16,9 12 6 18 10 SSW 1022,7 43 0 0,0
15.09.2019 05:00:00 9,5 5,4 7,9 10,1 14,7 16,9 13 7 21 11 SSW 1023,9 44 0 0,0
15.09.2019 04:00:00 9,4 5,6 7,7 10,2 15,0 16,9 12 6 16 9 SSW 1024,7 48 0 0,0
15.09.2019 03:00:00 9,3 5,7 7,5 10,6 15,2 17,0 7 4 16 8 SSW 1025,6 43 0 0,0
15.09.2019 02:00:00 9,7 5,4 7,6 10,8 15,5 17,0 8 4 16 9 SSW 1026,4 50 0 0,0
15.09.2019 01:00:00 9,6 5,1 7,6 11,1 15,8 17,0 11 6 15 8 S 1027,3 49 0 0,0
15.09.2019 00:00:00 10,1 5,4 8,1 11,6 16,2 17,0 11 6 14 8 S 1028,1 51 0 0,0
14.09.2019 23:00:00 10,4 5,4 8,3 12,2 16,6 17,0 8 5 12 6 S 1029,0 51 0 0,0
14.09.2019 22:00:00 10,5 5,9 8,6 13,0 17,0 17,0 9 5 12 6 S 1029,3 50 0 0,0
14.09.2019 21:00:00 12,2 5,6 8,8 14,0 17,4 17,0 6 3 9 5 WSW 1030,1 52 0 0,0
14.09.2019 20:00:00 13,8 5,5 9,0 15,4 17,7 17,0 7 4 13 7 WNW 1030,2 64 2 0,0
14.09.2019 19:00:00 16,0 4,9 14,7 17,5 18,0 17,0 9 5 18 10 WSW 1030,0 58 42 0,0
14.09.2019 18:00:00 17,1 4,7 16,9 19,6 18,0 17,0 16 8 22 12 W 1030,7 66 56 0,0
14.09.2019 17:00:00 17,8 3,7 20,8 22,0 17,7 17,1 12 7 26 14 WNW 1031,3 40 52 0,0
14.09.2019 16:00:00 18,2 4,6 22,4 23,2 17,3 17,1 16 8 32 17 WNW 1031,9 46 58 0,0
14.09.2019 15:00:00 17,9 2,6 22,7 23,5 16,7 17,1 17 9 26 14 W 1032,4 55 60 0,0
14.09.2019 14:00:00 17,8 4,3 22,8 22,5 16,1 17,1 17 9 34 19 WNW 1033,2 45 52 0,0
14.09.2019 13:00:00 16,7 5,0 23,0 22,2 15,4 17,1 14 8 24 13 W 1033,4 61 50 0,0
14.09.2019 12:00:00 15,5 5,9 18,0 19,0 14,8 17,1 13 7 25 14 NW 1034,1 54 37 0,0
14.09.2019 11:00:00 15,4 7,2 19,9 17,2 14,3 17,1 16 9 26 14 NW 1034,4 38 59 0,0
14.09.2019 10:00:00 13,6 7,9 17,0 14,6 14,0 17,1 12 7 19 10 WNW 1034,4 38 60 0,0
14.09.2019 09:00:00 11,7 8,6 13,1 12,5 14,0 17,1 10 5 14 8 W 1034,1 43 60 0,0
14.09.2019 08:00:00 9,5 7,8 9,0 9,8 14,1 17,1 6 3 9 5 SW 1033,8 29 53 0,0
14.09.2019 07:00:00 7,9 7,0 5,3 8,9 14,4 17,1 5 3 11 6 WSW 1033,6 30 0 0,0
14.09.2019 06:00:00 8,5 7,3 6,0 9,2 14,6 17,1 8 5 11 6 WSW 1033,5 33 0 0,0
14.09.2019 05:00:00 8,4 7,1 6,1 9,7 14,9 17,1 7 4 18 10 W 1033,2 30 0 0,0
14.09.2019 04:00:00 9,3 7,5 7,4 10,2 15,2 17,1 15 8 18 10 WNW 1033,0 33 0 0,0
14.09.2019 03:00:00 9,7 7,6 7,7 10,5 15,5 17,1 13 7 18 10 WNW 1033,2 35 0 0,0
14.09.2019 02:00:00 10,4 7,5 7,9 10,9 15,8 17,1 11 6 15 8 W 1033,3 35 0 0,0
14.09.2019 01:00:00 11,0 7,5 8,9 11,4 16,1 17,1 13 7 16 9 W 1032,9 34 0 0,0
14.09.2019 00:00:00 10,3 7,2 7,4 12,0 16,4 17,1 5 3 12 6 W 1032,5 39 0 0,0
13.09.2019 23:00:00 11,7 7,2 8,6 12,8 16,7 17,1 10 5 17 9 WNW 1032,2 46 0 0,0
13.09.2019 22:00:00 13,5 7,2 11,6 13,6 17,1 17,1 14 7 19 10 WNW 1031,9 46 0 0,0
13.09.2019 21:00:00 13,5 7,0 11,4 14,2 17,4 17,1 12 7 17 9 WNW 1031,3 50 0 0,0
13.09.2019 20:00:00 14,8 6,6 13,1 15,3 17,7 17,1 12 7 27 15 WNW 1030,8 46 1 0,0
13.09.2019 19:00:00 16,4 6,2 15,6 17,0 17,8 17,1 21 11 35 19 WNW 1030,2 47 49 0,0
13.09.2019 18:00:00 17,3 5,9 17,6 18,6 17,8 17,1 25 14 48 26 NW 1029,6 51 50 0,0
13.09.2019 17:00:00 18,6 5,4 20,8 19,7 17,7 17,1 30 16 51 28 NW 1029,2 50 50 0,0
13.09.2019 16:00:00 19,0 5,8 21,8 20,4 17,4 17,1 36 19 49 27 NW 1028,3 75 55 0,0
13.09.2019 15:00:00 18,8 9,7 22,4 19,9 17,2 17,1 35 19 46 25 NW 1027,9 43 30 0,0
13.09.2019 14:00:00 17,9 12,1 18,3 18,8 17,0 17,1 32 17 46 25 NW 1027,4 61 10 0,0
13.09.2019 13:00:00 17,0 13,6 16,7 18,5 16,9 17,1 26 14 47 26 NW 1026,3 57 0 0,5
13.09.2019 12:00:00 20,0 14,6 21,2 20,1 16,6 17,1 27 15 46 25 W 1025,0 44 5 0,0
13.09.2019 11:00:00 19,7 14,3 22,8 19,8 16,3 17,1 30 16 40 21 WSW 1024,8 45 23 0,0
13.09.2019 10:00:00 17,9 13,8 18,4 17,2 16,2 17,1 24 13 39 21 WSW 1024,9 38 0 0,0
13.09.2019 09:00:00 17,0 13,3 16,9 16,2 16,2 17,1 21 12 32 17 WSW 1024,6 30 0 0,0
13.09.2019 08:00:00 15,7 13,2 15,6 15,4 16,2 17,1 16 9 27 15 SW 1024,4 21 0 0,0
13.09.2019 07:00:00 14,8 13,0 14,6 14,8 16,3 17,1 16 9 22 12 SSW 1024,6 15 0 0,0
13.09.2019 06:00:00 15,1 13,2 14,4 14,8 16,4 17,1 13 7 21 12 SW 1024,5 16 0 0,0
13.09.2019 05:00:00 15,1 13,1 14,3 14,9 16,4 17,1 16 9 22 12 SW 1024,5 18 0 0,0
13.09.2019 04:00:00 15,4 13,4 15,2 15,1 16,5 17,1 13 7 21 11 SSW 1024,6 21 0 0,0
13.09.2019 03:00:00 15,1 13,2 14,7 14,8 16,7 17,1 11 6 16 8 S 1025,1 23 0 0,0
13.09.2019 02:00:00 14,9 12,9 14,0 14,5 16,9 17,2 10 5 14 7 S 1025,6 24 0 0,0
13.09.2019 01:00:00 15,2 12,6 13,4 14,8 17,1 17,2 8 5 11 6 SSW 1025,9 29 0 0,0
13.09.2019 00:00:00 16,0 12,7 14,4 15,5 17,3 17,2 8 5 12 6 SSW 1026,0 36 0 0,0
12.09.2019 23:00:00 16,5 13,0 15,8 16,3 17,5 17,2 8 5 12 7 SW 1026,3 37 0 0,0
12.09.2019 22:00:00 16,9 12,8 16,2 16,4 17,7 17,2 9 5 12 6 SSW 1026,3 41 0 0,0
12.09.2019 21:00:00 17,3 12,5 15,2 16,9 17,9 17,2 6 3 9 5 SSW 1026,2 46 0 0,0
12.09.2019 20:00:00 18,3 11,8 16,7 17,6 18,1 17,2 7 4 14 7 SW 1026,0 44 2 0,0
12.09.2019 19:00:00 20,2 11,4 18,9 19,2 18,2 17,2 11 6 28 15 W 1025,7 52 50 0,0
12.09.2019 18:00:00 21,1 10,9 20,9 20,8 18,1 17,2 22 12 39 21 W 1025,5 55 45 0,0
12.09.2019 17:00:00 21,0 11,1 21,5 21,7 17,9 17,2 20 11 39 21 W 1025,7 60 36 0,0
12.09.2019 16:00:00 21,3 10,7 23,2 22,2 17,6 17,2 23 12 42 23 W 1025,8 53 34 0,0
12.09.2019 15:00:00 21,7 9,6 24,7 23,1 17,1 17,2 26 14 44 24 W 1025,8 63 56 0,0
12.09.2019 14:00:00 20,7 9,0 22,7 21,5 16,6 17,2 31 17 53 29 W 1025,9 54 37 0,0
12.09.2019 13:00:00 19,8 11,3 24,1 20,3 16,2 17,2 19 10 32 17 W 1026,1 75 32 0,0
12.09.2019 12:00:00 18,0 13,1 20,3 19,3 15,9 17,2 18 10 29 16 WSW 1026,0 44 28 0,0
12.09.2019 11:00:00 16,1 13,3 16,8 16,3 15,8 17,2 15 8 26 14 WSW 1026,0 31 0 0,0
12.09.2019 10:00:00 15,3 13,4 15,8 15,6 15,7 17,3 19 11 27 15 WSW 1025,7 19 0 0,0
12.09.2019 09:00:00 15,0 12,9 15,3 15,3 15,7 17,3 16 9 24 13 WSW 1024,9 34 0 0,0
12.09.2019 08:00:00 14,6 12,7 14,6 14,6 15,7 17,3 15 8 26 14 SW 1024,2 32 0 0,0
12.09.2019 07:00:00 14,2 12,8 13,7 14,1 15,8 17,3 13 7 19 11 SW 1023,7 28 0 0,0
12.09.2019 06:00:00 14,0 12,6 12,5 14,2 15,9 17,3 11 6 22 12 SW 1022,7 29 0 0,0
12.09.2019 05:00:00 14,6 13,2 14,3 14,8 16,0 17,3 14 8 25 14 WSW 1022,9 27 0 0,0
12.09.2019 04:00:00 14,4 13,0 13,9 14,7 16,0 17,3 16 9 30 16 WSW 1022,4 22 0 0,1
12.09.2019 03:00:00 14,7 12,6 14,5 14,7 16,1 17,3 16 9 31 17 WSW 1021,7 35 0 0,0
12.09.2019 02:00:00 16,0 10,3 15,4 14,6 16,3 17,3 17 9 32 18 WSW 1021,4 45 0 0,0
12.09.2019 01:00:00 16,3 8,9 15,2 14,6 16,4 17,3 11 6 24 13 SW 1020,7 62 0 0,0
12.09.2019 00:00:00 16,3 8,3 15,3 14,5 16,6 17,3 18 10 26 14 SSW 1020,4 60 0 0,0
11.09.2019 23:00:00 16,7 7,9 15,4 14,6 16,8 17,4 16 9 24 13 SSW 1020,4 55 0 0,0
11.09.2019 22:00:00 16,9 7,7 15,5 15,0 17,1 17,4 13 7 21 12 S 1020,7 75 0 0,0
11.09.2019 21:00:00 16,7 7,6 15,0 15,4 17,3 17,4 14 8 19 10 S 1020,7 75 0 0,0
11.09.2019 20:00:00 17,0 7,8 14,5 16,4 17,6 17,4 11 6 16 8 S 1020,5 59 0 0,0
11.09.2019 19:00:00 19,1 7,4 18,0 18,0 17,7 17,4 11 6 25 13 S 1020,3 45 10 0,0
11.09.2019 18:00:00 20,2 7,0 20,0 19,1 17,7 17,5 15 8 36 19 SW 1020,4 56 15 0,0
11.09.2019 17:00:00 21,0 6,2 21,9 21,3 17,4 17,5 24 13 36 19 SW 1020,5 63 54 0,0
11.09.2019 16:00:00 20,6 6,3 21,8 21,8 16,9 17,5 23 12 36 19 SW 1020,7 42 53 0,0
11.09.2019 15:00:00 20,6 6,8 22,7 21,6 16,4 17,5 23 13 37 20 SW 1021,2 49 45 0,0
11.09.2019 14:00:00 19,7 7,3 22,6 21,4 15,8 17,5 20 11 38 20 WSW 1021,5 65 58 0,0
11.09.2019 13:00:00 19,7 8,8 22,5 20,1 15,2 17,5 22 12 32 17 SW 1021,6 60 60 0,0
11.09.2019 12:00:00 18,1 8,9 21,1 18,9 14,6 17,6 19 10 30 16 SSW 1022,2 42 60 0,0
11.09.2019 11:00:00 16,5 9,7 18,8 17,3 14,1 17,6 18 10 23 12 SW 1022,4 62 60 0,0
11.09.2019 10:00:00 14,3 9,5 16,1 15,0 13,9 17,6 13 7 20 11 SSW 1022,3 47 60 0,0
11.09.2019 09:00:00 12,0 8,7 12,8 12,7 13,8 17,6 12 7 20 11 SSW 1021,9 46 60 0,0
11.09.2019 08:00:00 10,4 8,0 10,3 10,7 13,9 17,6 10 6 16 9 S 1021,5 36 60 0,0
11.09.2019 07:00:00 9,2 7,7 7,9 9,9 14,1 17,6 8 5 16 9 S 1021,1 38 1 0,0
11.09.2019 06:00:00 9,5 7,5 8,1 10,2 14,4 17,6 10 5 17 9 S 1020,4 38 0 0,0
11.09.2019 05:00:00 10,6 8,0 9,2 10,7 14,6 17,7 9 5 16 9 S 1020,2 44 0 0,0
11.09.2019 04:00:00 11,5 8,4 9,9 11,2 14,8 17,7 12 6 21 11 SW 1020,1 51 0 0,0
11.09.2019 03:00:00 12,6 8,4 11,0 11,9 14,9 17,7 16 9 24 13 SW 1019,7 51 0 0,0
11.09.2019 02:00:00 13,3 8,6 12,2 12,4 15,0 17,7 16 8 21 11 SW 1019,2 55 0 0,0
11.09.2019 01:00:00 13,9 8,8 12,7 12,9 15,1 17,7 15 8 24 13 SSW 1018,7 57 0 0,0
11.09.2019 00:00:00 14,8 8,6 13,5 13,0 15,2 17,7 17 9 24 13 SW 1018,2 62 0 0,0
10.09.2019 23:00:00 15,1 8,8 13,7 13,2 15,3 17,7 14 7 22 12 SW 1017,7 52 0 0,0
10.09.2019 22:00:00 15,2 9,0 14,1 13,4 15,5 17,8 13 7 23 12 SSW 1017,2 59 0 0,0
10.09.2019 21:00:00 15,7 8,5 14,3 13,3 15,6 17,8 15 8 26 14 SW 1016,7 67 0 0,0
10.09.2019 20:00:00 15,8 8,3 14,0 13,4 15,7 17,8 18 10 32 17 WSW 1016,0 71 0 0,0
10.09.2019 19:00:00 16,8 8,2 15,7 14,3 15,8 17,8 22 12 42 23 WSW 1015,4 73 0 0,0
10.09.2019 18:00:00 17,3 8,2 16,4 15,1 15,9 17,8 29 15 43 23 WSW 1014,7 73 0 0,0
10.09.2019 17:00:00 17,4 9,0 16,9 15,3 15,9 17,8 26 14 46 25 WSW 1014,2 56 0 0,0
10.09.2019 16:00:00 17,1 9,4 16,6 15,4 15,8 17,9 29 16 58 31 WSW 1013,5 75 0 0,0
10.09.2019 15:00:00 16,9 10,4 17,0 15,7 15,7 17,9 32 17 51 27 WSW 1013,0 59 0 0,0
10.09.2019 14:00:00 16,0 11,1 16,5 16,5 15,6 17,9 33 18 52 28 WSW 1012,6 58 0 0,0
10.09.2019 13:00:00 15,4 11,5 15,0 15,3 15,5 17,9 34 18 55 30 WSW 1011,7 55 0 0,1
10.09.2019 12:00:00 14,0 12,0 13,4 14,5 15,5 17,9 36 20 50 27 W 1011,1 3,7 0 0,1
10.09.2019 11:00:00 14,2 11,5 14,1 14,3 15,5 17,9 33 18 49 27 W 1010,3 42 0 0,0
10.09.2019 10:00:00 13,3 11,7 13,1 13,7 15,5 17,9 34 19 49 26 W 1009,5 19 0 0,1
10.09.2019 09:00:00 12,7 11,1 12,2 13,3 15,6 17,9 32 17 46 25 W 1009,0 20 0 0,2
10.09.2019 08:00:00 12,3 11,1 11,9 13,3 15,8 17,9 31 17 47 25 W 1008,6 8 0 0,0
10.09.2019 07:00:00 12,4 11,5 12,1 13,5 15,9 18,0 26 14 38 21 W 1008,4 12 0 0,4
10.09.2019 06:00:00 12,7 11,8 12,4 13,7 16,0 18,0 28 15 41 22 W 1008,2 5 0 0,0
10.09.2019 05:00:00 13,0 11,9 12,6 14,0 16,1 18,0 23 12 33 18 W 1008,0 20 0 0,0
10.09.2019 04:00:00 13,1 12,2 12,9 14,2 16,2 18,0 21 12 29 16 W 1008,3 9 0 0,0
10.09.2019 03:00:00 13,3 12,1 13,0 14,4 16,3 18,0 21 11 30 16 W 1008,5 43 0 0,0
10.09.2019 02:00:00 13,7 13,0 13,5 14,7 16,4 18,0 14 7 17 9 W 1008,5 12 0 0,0
10.09.2019 01:00:00 13,8 13,2 13,8 15,0 16,5 18,0 11 6 17 9 W 1008,8 8 0 0,1
10.09.2019 00:00:00 13,9 13,5 13,9 15,1 16,6 18,0 9 5 14 8 WNW 1009,1 4,2 0 0,0
09.09.2019 23:00:00 13,9 13,6 13,9 15,2 16,6 18,0 9 5 17 9 NW 1008,9 4,7 0 0,0
09.09.2019 22:00:00 14,0 13,8 14,2 15,4 16,7 18,0 9 5 12 7 WNW 1009,0 0,6 0 0,1
09.09.2019 21:00:00 14,0 13,7 14,2 15,5 16,8 18,1 9 5 11 6 NNW 1009,2 1,4 0 0,0
09.09.2019 20:00:00 14,2 13,9 14,4 15,6 16,9 18,1 7 4 10 5 N 1009,1 3,8 0 0,3
09.09.2019 19:00:00 14,2 13,8 14,5 15,8 16,9 18,1 5 3 13 7 N 1008,7 2,7 0 0,2
09.09.2019 18:00:00 14,0 13,6 14,3 16,0 17,0 18,1 6 3 11 6 NNE 1009,1 2,8 0 0,1
09.09.2019 17:00:00 13,9 13,4 14,4 16,3 17,0 18,1 8 5 14 7 NNE 1009,4 7 0 0,2
09.09.2019 16:00:00 13,7 13,4 14,4 16,2 17,1 18,1 11 6 15 8 NNE 1009,6 2,0 0 0,2
09.09.2019 15:00:00 14,2 12,6 14,4 16,6 17,1 18,1 11 6 21 11 NNE 1009,9 13 0 0,0
09.09.2019 14:00:00 14,7 12,2 14,7 17,1 17,1 18,1 13 7 21 11 NNE 1010,1 41 0 0,0
09.09.2019 13:00:00 14,8 13,3 15,0 17,1 17,0 18,1 8 5 17 9 NE 1010,6 12 0 0,1
09.09.2019 12:00:00 14,7 13,4 15,0 16,9 17,0 18,1 6 3 12 7 ENE 1011,3 13 0 0,4
09.09.2019 11:00:00 14,2 13,4 14,7 16,3 17,0 18,1 8 4 14 8 NE 1011,9 8 0 1,8
09.09.2019 10:00:00 13,8 13,3 14,1 15,8 17,0 18,1 6 3 10 5 NNE 1012,5 7 0 1,5

tt = temperature
td = dewpoint
tt 5cm = temperature 5cm
tt -5cm = temperature -5cm
tt -20cm = temperature -20cm
tt -100cm = temperature -100cm
ff = wind speed
fx = gusts
dd = wind direction
ppp = reduced air pressure
vv = visibility
sd = sunshine duration
rr = precipitation

Next stations